Regional Weather Roundup
Issued by NWS San Diego, CA

Home | Current Version | Previous Version | Text Only | Print | Product List | Glossary On
Versions: 1 2 3 4 5 6 7 8 9 10 11 12 13 14 15 16 17 18 19 20 21 22 23 24 25 26 27 28 29 30 31 32 33 34 35 36 37 38 39 40 41 42 43 44 45 46 47 48 49 50
975
ASUS46 KSGX 210711
RWRSGX

SAN DIEGO HOURLY WEATHER ROUNDUP
NATIONAL WEATHER SERVICE SAN DIEGO CA
1100 PM PST TUE FEB 20 2018

NOTE: "FAIR" INDICATES FEW OR NO CLOUDS BELOW 12,000 FEET WITH NO
SIGNIFICANT WEATHER AND/OR OBSTRUCTIONS TO VISIBILITY.

CAZ042-043-060-061-PZZ750-775-210800-

GREATER SAN DIEGO AREA

CITY           SKY/WX    TMP DP  RH WIND       PRES   REMARKS
SAN DIEGO AP   CLEAR     51  31  46 E6        30.18S
NATIONAL CITY    N/A     47  32  56 CALM      30.19S
CHULA VISTA      N/A     43  33  69 CALM      30.09S
IMPERIAL BEACH CLEAR     44  30  57 E8        30.17F
BROWN FIELD    CLEAR     40  29  64 E6        30.16S
MIRAMAR MCAS   CLEAR     44  27  51 E9        30.15F
MONTGOMERY FLD CLEAR     43  29  57 CALM      30.16F
GILLESPIE FLD  FAIR      39  27  60 W3        30.16S

$$

NORTH SAN DIEGO COUNTY

CITY           SKY/WX    TMP DP  RH WIND       PRES   REMARKS
OCEANSIDE AP   CLEAR     37  26  64 CALM      30.16S
OCEANSIDE HBR    N/A     43  28  54 NE5       30.18F
VISTA            N/A     40  30  66 CALM      30.15F
CARLSBAD       CLEAR     46  27  47 E6        30.15S
DEL MAR          N/A     45  31  58 CALM      30.18S
LA JOLLA SCRIP   N/A     48  33  55 E5        30.16S
FALLBROOK        N/A     44  29  55 CALM      30.15F
ESCONDIDO        N/A     42  26  52 N1        30.18S
SAN MARCOS       N/A     44  28  52 CALM      30.20F
POWAY            N/A     37  27  67 CALM      30.18S

$$

EAST SAN DIEGO COUNTY

CITY           SKY/WX    TMP DP  RH WIND       PRES   REMARKS
RAMONA         CLEAR     29  21  72 CALM      30.14F
SANTEE LAKES     N/A     37  28  70 NW2       30.18R
LA MESA          N/A     44  28  53 CALM      30.11S
JAMUL            N/A     36  26  67 CALM      30.19S
DESCANSO N       N/A     26  17  71 NE3       30.17S
CAMPO            N/A     24  13  62 NE8       30.08S WCI  15

$$

ORANGE COUNTY AND THE LOS ANGELES BASIN

CITY           SKY/WX    TMP DP  RH WIND       PRES   REMARKS
JOHN WAYNE AP  CLEAR     49  25  39 E6        30.15S
LAGUNA BEACH     N/A     41  26  55 CALM      30.11S
LAKE FOREST FR   N/A     42  12  29 NE2       30.04F
HUNTINGTON BCH   N/A     40  32  71 CALM      30.16S
LOS ALAMITOS   FAIR      43  30  60 E3        30.14S
FULLERTON      CLEAR     47  28  47 E6        30.14S
LONG BEACH     CLEAR     50  27  40 SE3       30.14F
L.A. AP        CLEAR     50  27  40 N3        30.14F
L.A. DOWNTOWN  CLEAR     49  25  39 CALM      30.13F

$$

THE INLAND EMPIRE

CITY           SKY/WX    TMP DP  RH WIND       PRES   REMARKS
CORONA         CLEAR     45  16  31 SE6       30.16S
CHINO          CLEAR     44  23  43 E6        30.16R
ONTARIO        CLEAR     44  21  40 E3        30.14S
SAN BERNARDINO FAIR      44  15  30 E6        30.15S
RIVERSIDE AP   CLEAR     42  23  46 CALM      30.15S
MORENO VALLEY    N/A     40  26  56 CALM      28.25S
MARCH ARB      CLEAR     28  12  49 CALM      30.13S
HORSETHIEF CYN   N/A     40  12  31 CALM      30.19S
PERRIS           N/A     42  25  50 CALM      30.07S
HEMET EAST       N/A     37  13  37 CALM      30.23S
FRENCH VALLEY  FAIR      37  21  52 N3        30.15S
TEMECULA         N/A     40  27  59 CALM      30.20R

$$

SAN BERNARDINO AND RIVERSIDE COUNTY MOUNTAINS

CITY           SKY/WX    TMP DP  RH WIND       PRES   REMARKS
BIG BEAR AP      N/A     14   7  73 CALM      30.01S

$$

SOUTHERN DESERT INCLUDING THE COACHELLA VALLEY

CITY           SKY/WX    TMP DP  RH WIND       PRES   REMARKS
PALM SPRINGS   CLEAR     48  17  29 NW3       30.16R
THOUSAND PALMS   N/A     46  12  25 W1        30.13R
PALM DESERT      N/A     46  21  37 CALM      28.27
THERMAL        CLEAR     46  18  32 NW8       30.13R
BLYTHE         CLEAR     39  -3  17 CALM      30.14R
IMPERIAL AP    CLEAR     42  16  34 CALM      30.13S
EL CENTRO NAS  PTCLDY    42   2  18 SE3       30.15S
YUMA AZ        CLEAR     45  16  31 CALM      30.13S
MEXICALI       CLEAR     45   9  23 NE3       30.14S

$$

UPPER DESERT

CITY           SKY/WX    TMP DP  RH WIND       PRES   REMARKS
VICTORVILLE AP CLEAR     27  -2  28 CALM      30.11S
HESPERIA         N/A     30   3  31 SW2       30.26S
APPLE VALLEY     N/A     25   9  50 S2        30.26R
PALMDALE       MOCLDY    30   6  36 S5        30.12S WCI  25
LANCASTER      CLEAR     31  13  47 W5        30.11F WCI  26
EDWARDS AFB    CLOUDY    33   9  37 S5        30.10F WCI  28
DAGGETT        PTCLDY    31   0  26 W3        30.12S
29 PALMS N     CLEAR     33  -2  22 SW6       30.19S WCI  28
NEEDLES        CLEAR     46  -5  11 NW7       30.14S

$$

REGIONAL REPORTS

CITY           SKY/WX    TMP DP  RH WIND       PRES   REMARKS
SANTA BARBARA  MOCLDY    44  30  57 CALM      30.14S
SANDBERG       CLEAR     28   1  31 N10       30.07F WCI  19
LAS VEGAS NV   MOCLDY    43   1  17 N6        30.13F
PHOENIX AZ     CLEAR     46  22  38 SW6       30.09S
TIJUANA        CLEAR     45  30  57 CALM      30.18
ENSENADA NW      N/A     49  32  51 CALM      30.11S

$$

OFFSHORE ISLANDS

CITY           SKY/WX    TMP DP  RH WIND       PRES   REMARKS
CATALINA ARPT  CLEAR     46  27  47 W3        30.13F
SAN NICOLAS IS CLEAR     49  43  80 NW20G26   30.15F

$$

MARINE AND OFFSHORE BUOY REPORTS

STATION/POSITION SKY/WX   TEMP    WIND        PRES    VSBY  SWELL
                          AIR SEA DIR/SP/G                  HT/PER/DIR
                          (F)     (DEG/KT/KT) (MB)    (MI)  (FT/S/D)
TANNER BANKS               54 59              1021.5F
S CLEMENTE BASIN           55 61  350/  8/ 12 1021.5S         5/300/13
SAN NICOLAS IS.               57                N/A           3/300/13
SO. S. ROSA ISLA           51 57  320/ 21/ 25 1021.2S         7/310/11
W. S. BARBARA CH           51 57  330/ 19/ 23 1021.2
M. S. BARBARA CH           52 56  300/ 12/ 16 1021.3F         2/240/ 8
S. MONICA BASIN               60  320/ 14/ 17 1019.9F         2/150/15
S PEDRO CHANNEL               60                N/A           2/220/12
CMP PENDLETON NS              59                N/A           2/230/13
OCEANSIDE OFFSHR              60                N/A           2/220/14
TORREY PINES OTR              60                N/A           2/280/11
SAN DIEGO BAY                 64              1022.1S
POINT LOMA SOUTH              60                N/A           2/280/11

$$





USA.gov is the U.S. government's official web portal to all federal, state and local government web resources and services.